Location: Unnamed
(51.5169°N, 0.1311°W)
Time: 06:17:57
(UTC+01:00)

Vanguard 1 - Pass Details

Date: 13 August 2024
Orbit: 649 x 3825 km, 34.2° (Epoch: 16 September)

Event Time Altitude Azimuth Distance (km) Brightness Sun altitude
Rises 22:09:50 0° 207° (SSW) 3,952 13.0 -14.0°
Reaches altitude 10° 22:12:57 10° 191° (S) 3,356 12.5 -14.3°
Maximum altitude 22:19:09 21° 145° (SE) 3,275 12.1 -15.0°
Drops below altitude 10° 22:28:11 10° 103° (ESE) 5,120 13.2 -15.9°
Sets 22:34:35 0° 92° (E) 6,750 14.0 -16.5°
